Location: Ertinghausen
(51.6624°N, 9.7874°E)
Time: 04:23:56
(UTC+00:00)

Nadezhda 1 Rocket - Visible Passes

Search period start: 21 May 2025 00:00
Search period end: 31 May 2025 00:00
Orbit: 940 x 1004 km, 83.0° (Epoch: 20 May)

Date Brightness Start Highest point End Pass type
(mag) Time Alt. Az. Time Alt. Az. Time Alt. Az.
21 May 4.9 20:40:10 10° SSW 20:46:05 51° WNW 20:52:09 10° N visible
21 May 6.7 22:31:03 10° WNW 22:33:06 12° NW 22:35:10 10° NNW visible
22 May 5.7 21:05:26 10° SW 21:10:52 32° WNW 21:16:24 10° N visible
23 May 6.4 21:31:16 10° WSW 21:35:50 21° WNW 21:40:28 10° N visible
24 May 4.6 20:08:08 10° SSW 20:14:10 60° WNW 20:20:22 10° N visible
24 May 6.7 21:57:57 10° W 22:00:59 14° NW 22:04:02 10° NNW visible
25 May 5.5 20:33:14 10° SW 20:38:54 38° WNW 20:44:42 10° N visible
26 May 6.3 20:58:51 10° WSW 21:03:48 25° WNW 21:08:50 10° N visible
27 May 6.7 21:25:09 10° W 21:28:53 16° NW 21:32:39 10° NNW visible
28 May 5.3 20:01:05 10° SW 20:06:57 45° WNW 20:12:57 10° N visible
28 May 7.2 21:53:17 10° NW 21:54:10 10° NW 21:55:02 10° NW visible
29 May 6.1 20:26:30 10° WSW 20:31:48 29° WNW 20:37:10 10° N visible
30 May 6.6 20:52:32 10° WSW 20:56:48 19° WNW 21:01:09 10° NNW visible
